Der Flugplatz Krefeld-Egelsberg
  • ICAO-Code: EDLK
  • Koordinaten: N 51° 23,10'    E 06° 35,26'
  • Höhe ü. NN: 141 ft / 43 m
  • Platzfrequenz: 120.675 MHz - Krefeld Info
  • Landebahn: 06 - 24
  • Abmessungen: 640 x 30m
  • Belag: Gras
  • Tragfähigkeit: 2000 kg MTW; HEL 5700 kg MTW
  • Tankstelle: Nein
  • Betriebszeit: PPR
  • PPR-Request: Tel: 02151/ 560133, 368400
  • Landegebühr: Private Flüge 5 €, für gewerbliche Flüge wird eine gesonderte Gebühr erhoben

 

Wetterinformation

[Quelle: ADDS]
METAR
EDDL 181820Z 31006KT 9999 FEW040 06/00 Q1021 NOSIG =
EDDL 181700Z 1818/1924 29008KT 9999 FEW030 BECMG 1818/1821 VRB03KT BECMG 1909/1912 25005KT BECMG 1917/1920 17005KT
TAF
EDDL 181700Z 1818/1924 29008KT 9999 FEW030 BECMG 1818/1821 VRB03KT BECMG 1909/1912 25005KT BECMG 1917/1920 17005KT =
Lade Webcam-Bild
Cookies erleichtern die Bereitstellung unserer Dienste. Mit der Nutzung unserer Dienste erklären Sie sich damit einverstanden, dass wir Cookies verwenden.